[Iaude] MPEC N113: 2024 NQ2 [a=2.16,e=0.42,i=11.7,H=23.1]
    mpec at cfa.harvard.edu 
    mpec at cfa.harvard.edu
       
    Tue Jul  9 09:59:47 EDT 2024
    
    
  
M.P.E.C. 2024-N113                                 Issued 2024 July 9, 13:57 UT
     The Minor Planet Electronic Circulars contain information on unusual
         minor planets, routine data on comets and natural satellites,
         and occasional editorial announcements.  They are published
    on behalf of Division F of the International Astronomical Union by the
          Minor Planet Center, Smithsonian Astrophysical Observatory,
                          Cambridge, MA 02138, U.S.A.
			  
             Prepared using the Tamkin Foundation Computer Network
                              MPC at CFA.HARVARD.EDU
            URL https://www.minorplanetcenter.net/    ISSN 1523-6714
                                    2024 NQ2                                    
Observations:
     K24N02Q* C2024 07 06.40823519 21 15.815-33 02 29.60         21.30wXEN113F51
     K24N02Q  C2024 07 06.42270119 21 17.053-33 03 12.42         21.44wXEN113F51
     K24N02Q  C2024 07 06.42994819 21 17.682-33 03 33.94         21.76wXEN113F51
     K24N02Q 3C2024 07 07.45429119 23 03.351-33 53 35.07         20.42GVEN113T14
     K24N02Q 3C2024 07 07.45526919 23 03.444-33 53 37.72         20.48GVEN113T14
     K24N02Q 3C2024 07 07.45624719 23 03.539-33 53 40.54         20.93GVEN113T14
     K24N02Q |C2024 07 08.09619019 24 12.250-34 24 03.60         21.3 GVEN113807
     K24N02Q |C2024 07 08.10066219 24 12.640-34 24 17.20         21.6 GVEN113807
     K24N02Q |C2024 07 08.10499019 24 13.030-34 24 29.60         21.3 GVEN113807
     K24N02Q KC2024 07 09.51032219 26 40.087-35 31 10.63         20.9 GVEN113474
     K24N02Q KC2024 07 09.52368219 26 41.333-35 31 48.18         20.6 GVEN113474
     K24N02Q KC2024 07 09.52975319 26 41.928-35 32 05.28         20.6 GVEN113474
     K24N02Q KC2024 07 09.53582919 26 42.463-35 32 22.60         20.9 GVEN113474
Observer details:
474 Mount John Observatory, Lake Tekapo.  Observers A. C. Gilmore, P. M.
    Kilmartin.  Measurer P. M. Kilmartin.  0.6-m f/6.3 Reflector + CCD.
807 Cerro Tololo Observatory, La Serena.  Observers T. Linder, R. Holmes.
    0.61-m f/6.8 Ritchey-Chretien + CCD.
F51 Pan-STARRS 1, Haleakala.  Observers J. Herman, T. Lowe, P. Minguez, A.
    Schultz, I. Smith.  Measurers K. Chambers, T. de Boer, J. Fairlamb, H.
    Gao, M. Huber, C.-C. Lin, E. Magnier, Y. Ramanjooloo, R. Wainscoat, R.
    Weryk.  1.8-m Ritchey-Chretien + CCD.
T14 Canada-France-Hawaii Telescope, Maunakea.  Observers R. Wainscoat, H.
    Januszewski, H. Flewelling.  Measurers R. Weryk, R. Wainscoat.  3.6-m
    f/4.1 reflector + CCD.
Orbital elements:
2024 NQ2                                                 Earth MOID = 0.2406 AU
Epoch 2024 Mar. 31.0 TT = JDT 2460400.5                 MPC                     
M 329.36370              (2000.0)            P               Q                  
n   0.31042268     Peri.  191.34649     +0.27637846     +0.93971171             
a   2.1602321      Node    94.93906     -0.86517066     +0.33452021             
e   0.4192163      Incl.   11.66200     -0.41844315     -0.07097976             
P   3.18           H   23.19          G   0.15           U   9                  
Residuals in seconds of arc
240706 F51  0.1+  0.1-    240707 T14  0.0   0.1+    240709 474  0.0   0.1+
240706 F51  0.0   0.1+    240708 807  0.2+  0.0     240709 474  0.4+  0.2+
240706 F51  0.0   0.0     240708 807  0.1-  0.4-    240709 474  0.0   0.0
240707 T14  0.3-  0.1-    240708 807  0.2-  0.0
240707 T14  0.2-  0.1+    240709 474  0.1-  0.1-
Ephemeris:
2024 NQ2                 a,e,i = 2.16, 0.42, 12                  q = 1.2546
Date    TT    R. A. (2000) Decl.     Delta      r    Elong.  Phase     V
2024 06 09    18 38 42.8 -12 12 07   0.2906  1.2863   156.2    18.6    22.0
...
2024 06 24    19 00 59.6 -22 39 43   0.2495  1.2620   168.6     9.2    21.3
...
2024 07 02    19 13 49.2 -29 21 09   0.2417  1.2559   170.9     7.3    21.1
...
2024 07 08    19 24 00.4 -34 19 25   0.2424  1.2546   167.7     9.9    21.2
2024 07 09    19 25 45.6 -35 07 10   0.2431  1.2547   167.0    10.5    21.3
2024 07 10    19 27 31.8 -35 54 06   0.2439  1.2548   166.2    11.2    21.3
...
2024 07 16    19 38 29.6 -40 14 34   0.2519  1.2573   161.1    15.2    21.5
...
2024 07 24    19 53 53.1 -44 50 51   0.2698  1.2650   154.7    20.1    21.9
...
2024 08 08    20 23 20.7 -49 26 34   0.3225  1.2922   145.3    26.6    22.5
A. U. Tomatic                (C) Copyright 2024 MPC           M.P.E.C. 2024-N113
    
    
More information about the Iaude
mailing list